Greenville, MS

8:10 AM CDT on June 28, 2017 (GMT -0500)
Mid Delta Regional

Weather History for KGLH - March, 2014

Change the Weather History Date:

Saturday, March 29, 2014

  Actual Average Record
Temperature  
Mean Temperature 58 °F 58 °F  
Max Temperature 64 °F 69 °F 85 °F (2007)
Min Temperature 51 °F 47 °F 29 °F (1937)
Degree Days  
Heating Degree Days 7 8  
Month to date heating degree days 419 321  
Since 1 July heating degree days 3026 2630  
Cooling Degree Days 0 1  
Month to date cooling degree days 5 15  
Year to date cooling degree days 5 20  
Growing Degree Days 8 (Base 50)    
Moisture  
Dew Point 52 °F    
Average Humidity 71    
Maximum Humidity 93    
Minimum Humidity 48    
Precipitation  
Precipitation 0.14 in 0.19 in 2.72 in (1975)
Month to date precipitation 5.50 4.17  
Year to date precipitation 9.80 14.16  
Sea Level Pressure  
Sea Level Pressure 30.05 in    
Wind  
Wind Speed 11 mph (NNW)    
Max Wind Speed 24 mph    
Max Gust Speed 31 mph    
Visibility 8 miles    
Events Rain , Thunderstorm    
T = Trace of Precipitation, MM = Missing Value Source: NWS Daily Summary

Daily Weather History Graph

Daily Weather History Graph

Search for Another Location

Airport or City:

Trip Planner

Search our weather history database for the weather conditions in past years. The results will help you decide how hot, cold, wet, or windy it might be!

Date:

Astronomy

Mar. 29, 2014 Rise Set
Actual Time 6:55 AM CDT 7:22 PM CDT
Civil Twilight 6:30 AM CDT 7:47 PM CDT
Nautical Twilight 6:01 AM CDT 8:16 PM CDT
Astronomical Twilight 5:31 AM CDT 8:46 PM CDT
Moon 6:01 AM CDT (3/29) 6:29 PM CDT (3/29)
Length of Visible Light 13h 16m
Length of Day
12h 26m
Waning Crescent, 2% of the Moon is Illuminated
Mar 29
Waning Crescent
Mar 30
New
Apr 7
First Quarter
Apr 15
Full
Apr 22
Last Quarter

Hourly Weather History & Observations

Time (CDT) Temp. Dew Point Humidity Pressure Visibility Wind Dir Wind Speed Gust Speed Precip Events Conditions
12:06 AM 62.6 °F 60.8 °F 94% 29.90 in 4.0 mi North - - 0.06 in Rain Rain
12:14 AM 60.8 °F 60.8 °F 100% 29.90 in 4.0 mi North - - 0.10 in Rain , Thunderstorm Rain
12:46 AM 60.8 °F 59.0 °F 94% 29.89 in 6.0 mi North - - 0.20 in Rain Light Rain
12:53 AM 61.0 °F 59.0 °F 93% 29.90 in 7.0 mi North - - 0.21 in Rain , Thunderstorm Light Thunderstorms and Rain
1:11 AM 60.8 °F 59.0 °F 94% 29.85 in 6.0 mi North - - 0.05 in Rain , Thunderstorm Thunderstorms and Rain
1:45 AM 60.8 °F 59.0 °F 94% 29.85 in 7.0 mi North - - 0.11 in Rain Light Rain
1:53 AM 61.0 °F 59.0 °F 93% 29.87 in 7.0 mi North - - 0.12 in Rain Light Rain
2:24 AM 60.8 °F 59.0 °F 94% 29.87 in 8.0 mi North - - 0.02 in Rain Light Rain
2:33 AM 60.8 °F 59.0 °F 94% 29.87 in 10.0 mi North - - 0.03 in Rain Light Rain
2:53 AM 60.1 °F 57.9 °F 93% 29.90 in 4.0 mi North - - 0.03 in Rain Rain
3:12 AM 60.8 °F 57.2 °F 88% 29.88 in 8.0 mi North - - 0.00 in   Overcast
3:21 AM 60.8 °F 57.2 °F 88% 29.88 in 10.0 mi North - - 0.00 in   Overcast
3:44 AM 60.8 °F 57.2 °F 88% 29.89 in 10.0 mi North - - 0.01 in   Overcast
3:53 AM 59.0 °F 57.0 °F 93% 29.91 in 10.0 mi North - - 0.01 in   Overcast
4:42 AM 57.2 °F 55.4 °F 94% 29.92 in 10.0 mi North - - N/A   Overcast
4:53 AM 57.0 °F 55.0 °F 93% 29.95 in 9.0 mi North - - N/A   Overcast
5:53 AM 55.0 °F 52.0 °F 89% 29.99 in 7.0 mi North - - N/A   Overcast
6:53 AM 54.0 °F 51.1 °F 90% 30.04 in 7.0 mi North - - N/A   Overcast
7:21 AM 53.6 °F 51.8 °F 94% 30.03 in 6.0 mi NNW 17.3 mph - N/A   Overcast
7:53 AM 54.0 °F 48.9 °F 83% 30.07 in 7.0 mi NNW 18.4 mph - N/A   Mostly Cloudy
8:53 AM 55.0 °F 48.9 °F 80% 30.11 in 7.0 mi NNW 18.4 mph - N/A   Mostly Cloudy
9:17 AM 55.4 °F 48.2 °F 77% 30.09 in 7.0 mi North 19.6 mph 25.3 mph N/A   Scattered Clouds
9:45 AM 55.4 °F 48.2 °F 77% 30.11 in 7.0 mi NNW 15.0 mph - N/A   Mostly Cloudy
9:53 AM 57.0 °F 50.0 °F 77% 30.13 in 8.0 mi North 15.0 mph - N/A   Mostly Cloudy
10:53 AM 55.9 °F 48.9 °F 77% 30.15 in 9.0 mi NNW 11.5 mph - N/A   Mostly Cloudy
11:53 AM 59.0 °F 48.9 °F 69% 30.18 in 10.0 mi North 15.0 mph 23.0 mph N/A   Mostly Cloudy
12:25 PM 60.8 °F 50.0 °F 68% 30.16 in 10.0 mi North 13.8 mph - N/A   Scattered Clouds
12:53 PM 61.0 °F 48.9 °F 64% 30.19 in 10.0 mi North 12.7 mph - N/A   Partly Cloudy
1:53 PM 61.0 °F 48.0 °F 62% 30.19 in 10.0 mi North 11.5 mph - N/A   Mostly Cloudy
2:53 PM 63.0 °F 48.0 °F 58% 30.18 in 10.0 mi NNW 9.2 mph 18.4 mph N/A   Mostly Cloudy
3:53 PM 64.0 °F 46.9 °F 54% 30.18 in 10.0 mi NNW 15.0 mph 19.6 mph N/A   Clear
4:53 PM 63.0 °F 44.1 °F 50% 30.17 in 10.0 mi NW 18.4 mph 25.3 mph N/A   Scattered Clouds
5:53 PM 62.1 °F 43.0 °F 50% 30.19 in 10.0 mi North 13.8 mph - N/A   Clear
6:53 PM 60.1 °F 44.1 °F 55% 30.20 in 10.0 mi NNW 9.2 mph - N/A   Clear
7:53 PM 57.0 °F 46.0 °F 67% 30.22 in 10.0 mi NW 5.8 mph - N/A   Clear
8:53 PM 57.0 °F 45.0 °F 64% 30.23 in 10.0 mi NW 3.5 mph - N/A   Clear
9:53 PM 53.1 °F 45.0 °F 74% 30.25 in 10.0 mi Calm Calm - N/A   Clear
10:53 PM 53.1 °F 45.0 °F 74% 30.25 in 10.0 mi NE 4.6 mph - N/A   Clear
11:53 PM 52.0 °F 46.0 °F 80% 30.25 in 10.0 mi ENE 4.6 mph - N/A   Clear